TimeCDT,TemperatureF,Dew PointF,Humidity,Sea Level PressureIn,VisibilityMPH,Wind Direction,Wind SpeedMPH,Gust SpeedMPH,PrecipitationIn,Events,Conditions,WindDirDegrees,DateUTC
12:52 AM,30.9,17.1,57,30.02,10.0,NE,8.1,-,N/A,,Clear,50,2012-03-15 05:52:00
1:52 AM,33.1,19.0,56,30.02,10.0,East,8.1,-,N/A,,Clear,80,2012-03-15 06:52:00
2:52 AM,34.0,19.9,56,30.02,10.0,ENE,5.8,-,N/A,,Mostly Cloudy,60,2012-03-15 07:52:00
3:52 AM,35.1,21.9,59,30.00,10.0,East,8.1,-,N/A,,Mostly Cloudy,80,2012-03-15 08:52:00
4:52 AM,36.0,23.0,59,30.01,10.0,ENE,4.6,-,N/A,,Overcast,70,2012-03-15 09:52:00
5:52 AM,37.0,25.0,62,30.03,10.0,East,4.6,-,N/A,,Overcast,100,2012-03-15 10:52:00
6:52 AM,39.0,28.9,67,29.98,10.0,SSE,18.4,24.2,0.00,,Mostly Cloudy,150,2012-03-15 11:52:00
7:52 AM,39.0,26.1,60,30.04,10.0,Variable,3.5,-,N/A,,Clear,0,2012-03-15 12:52:00
8:52 AM,37.9,27.0,65,30.07,10.0,Calm,Calm,-,N/A,,Clear,0,2012-03-15 13:52:00
9:52 AM,45.0,25.0,46,30.06,10.0,SSE,5.8,-,N/A,,Clear,160,2012-03-15 14:52:00
10:52 AM,48.9,21.9,35,30.06,10.0,SSE,11.5,-,N/A,,Clear,160,2012-03-15 15:52:00
11:52 AM,53.1,17.1,24,30.05,10.0,South,12.7,-,N/A,,Clear,170,2012-03-15 16:52:00
12:52 PM,57.0,17.1,21,30.03,10.0,SW,10.4,-,N/A,,Clear,220,2012-03-15 17:52:00
1:52 PM,60.1,19.9,21,30.00,10.0,SSW,8.1,-,N/A,,Clear,200,2012-03-15 18:52:00
2:52 PM,64.0,23.0,21,29.97,10.0,South,5.8,-,N/A,,Clear,190,2012-03-15 19:52:00
3:52 PM,64.9,27.0,24,29.94,10.0,South,13.8,-,N/A,,Clear,170,2012-03-15 20:52:00
4:52 PM,66.0,27.0,23,29.93,10.0,South,9.2,-,N/A,,Clear,190,2012-03-15 21:52:00
5:52 PM,64.9,28.9,26,29.92,10.0,SSE,10.4,-,N/A,,Clear,160,2012-03-15 22:52:00
6:52 PM,59.0,28.9,32,29.92,10.0,SSE,9.2,-,N/A,,Clear,150,2012-03-15 23:52:00
7:52 PM,50.0,30.9,48,29.93,10.0,SE,8.1,-,N/A,,Clear,130,2012-03-16 00:52:00
8:52 PM,48.0,28.9,48,29.93,10.0,SSE,9.2,-,N/A,,Clear,160,2012-03-16 01:52:00
9:52 PM,44.6,28.4,53,29.91,10.0,SSE,8.1,-,N/A,,Clear,150,2012-03-16 02:52:00
10:52 PM,46.0,28.9,51,29.92,10.0,SSE,9.2,-,N/A,,Clear,150,2012-03-16 03:52:00
11:52 PM,44.1,28.9,55,29.91,10.0,SSE,8.1,-,N/A,,Clear,160,2012-03-16 04:52:00